RYR34TT LEMD-LICJ

Flight info

Callsign RYR34TT
Flight time N/A
Altitude 36000
Route PINAR DCT SEGRE DCT BRITO DCT PISUS DCT PONEN DCT SEROX DCT VILAR DCT KARES DCT BISES DCT BCN DCT DIPES N725 OSPOK DCT NOLVI DCT ORKUM DCT ELSAG DCT ALG DCT GERMO DCT GIANO
Aircraft B738/M-SDE3FGILRWY/SB1

Departure

Time N/A
Airport Adolfo Suárez Madrid–Barajas Airport (LEMD)

Arrival

Time 2026-04-30 18:00
Airport Falcone–Borsellino Airport (LICJ)
Time Latitude Longitude Altitude Speed Heading
2026-04-30 15:11 40.46607 -3.56827 1972 ft 0 kts 270°
2026-04-30 17:39 39.15846 11.62204 23752 ft 401 kts 114°
2026-04-30 17:41 39.06903 11.87970 20840 ft 385 kts 114°
2026-04-30 17:42 39.04720 11.94225 20159 ft 381 kts 114°
2026-04-30 17:42 39.01842 12.02449 19249 ft 376 kts 114°
2026-04-30 17:43 38.99346 12.09563 18450 ft 374 kts 114°
2026-04-30 17:44 38.96496 12.17668 17454 ft 369 kts 114°
2026-04-30 17:44 38.93366 12.26542 16446 ft 361 kts 114°
2026-04-30 17:46 38.88254 12.40980 14820 ft 350 kts 114°
2026-04-30 17:47 38.81091 12.48404 13569 ft 336 kts 158°
2026-04-30 17:48 38.72678 12.53332 12243 ft 329 kts 157°
2026-04-30 17:48 38.66499 12.57021 11314 ft 322 kts 156°
2026-04-30 17:49 38.58428 12.61850 10155 ft 314 kts 156°
2026-04-30 17:50 38.50689 12.66473 8980 ft 306 kts 156°
2026-04-30 17:51 38.44948 12.69895 8204 ft 297 kts 155°
2026-04-30 17:52 38.39440 12.73110 7477 ft 288 kts 156°
2026-04-30 17:53 38.30376 12.78277 6023 ft 284 kts 156°
2026-04-30 17:54 38.23222 12.82358 4824 ft 279 kts 155°
2026-04-30 17:55 38.16229 12.86340 3695 ft 271 kts 154°
2026-04-30 17:56 38.12099 12.91953 2825 ft 201 kts 80°
2026-04-30 17:57 38.13410 12.96675 2095 ft 182 kts 66°
2026-04-30 17:58 38.14831 13.00909 1415 ft 164 kts 66°
2026-04-30 17:59 38.16468 13.05775 598 ft 140 kts 65°
2026-04-30 18:00 38.17896 13.10033 52 ft 73 kts 66°
2026-04-30 18:00 38.18174 13.10673 52 ft 11 kts 275°
2026-04-30 18:01 38.18194 13.10451 52 ft 13 kts 277°
2026-04-30 18:02 38.18370 13.10492 52 ft 12 kts 20°
2026-04-30 18:02 38.18527 13.10562 52 ft 3 kts 338°
2026-04-30 18:03 38.18531 13.10560 52 ft 0 kts 338°